This is the latest recevied weather packets stored in our database for station/object KD5VOO. If no packets are shown the sender has not sent any weather packets the latest 1 day(s).
| Time | Temp. | Humidity | Pressure | Rain* | Wind** | Luminosity | Snow |
|---|---|---|---|---|---|---|---|
| 1778005767 | 27.78° C | 52% | 1009.2 hPa | 0 mm | 2.68 m/s, 202° | 214 W/m² | - |
| 1778005464 | 27.78° C | 52% | 1009.2 hPa | 0 mm | 2.68 m/s, 207° | 209 W/m² | - |
| 1778005160 | 27.22° C | 52% | 1009.2 hPa | 0 mm | 1.79 m/s, 197° | 104 W/m² | - |
| 1778004858 | 27.22° C | 52% | 1009.2 hPa | 0 mm | 2.24 m/s, 205° | 214 W/m² | - |
| 1778004554 | 27.22° C | 52% | 1009.2 hPa | 0 mm | 1.34 m/s, 211° | 151 W/m² | - |
| 1778004251 | 27.22° C | 52% | 1009.5 hPa | 0 mm | 1.79 m/s, 181° | 134 W/m² | - |
| 1778003947 | 27.22° C | 52% | 1009.5 hPa | 0 mm | 2.24 m/s, 241° | 102 W/m² | - |
| 1778003644 | 27.22° C | 52% | 1009.5 hPa | 0 mm | 4.47 m/s, 231° | 198 W/m² | - |
| 1778003340 | 27.22° C | 52% | 1009.5 hPa | 0 mm | 1.34 m/s, 181° | 166 W/m² | - |
| 1778003038 | 27.22° C | 52% | 1009.5 hPa | 0 mm | 0.45 m/s, 188° | 102 W/m² | - |
| 1778002734 | 26.67° C | 53% | 1009.5 hPa | 0 mm | 0.89 m/s, 225° | 121 W/m² | - |
| 1778002430 | 26.67° C | 52% | 1009.9 hPa | 0 mm | 0 m/s | 102 W/m² | - |
| 1778002127 | 26.67° C | 53% | 1009.9 hPa | 0 mm | 0.45 m/s, 177° | 120 W/m² | - |
| 1778001825 | 26.67° C | 54% | 1009.9 hPa | 0 mm | 2.24 m/s, 222° | 86 W/m² | - |
| 1778001524 | 26.67° C | 53% | 1009.9 hPa | 0 mm | 1.79 m/s, 213° | 89 W/m² | - |
| 1778001222 | 26.67° C | 53% | 1009.9 hPa | 0 mm | 1.34 m/s, 247° | 104 W/m² | - |
| 1778000918 | 26.67° C | 53% | 1009.9 hPa | 0 mm | 2.24 m/s, 207° | 190 W/m² | - |
| 1778000615 | 26.67° C | 52% | 1009.9 hPa | 0 mm | 0.89 m/s, 186° | 112 W/m² | - |
| 1778000310 | 26.67° C | 53% | 1009.9 hPa | 0 mm | 4.02 m/s, 215° | 171 W/m² | - |
| 1778000006 | 26.67° C | 53% | 1009.9 hPa | 0 mm | 3.58 m/s, 197° | 152 W/m² | - |
| 1777999702 | 26.11° C | 53% | 1009.9 hPa | 0 mm | 4.47 m/s, 175° | 121 W/m² | - |
| 1777999399 | 26.11° C | 53% | 1009.9 hPa | 0 mm | 0.45 m/s, 179° | 141 W/m² | - |
| 1777999097 | 26.11° C | 53% | 1009.9 hPa | 0 mm | 2.24 m/s, 190° | 90 W/m² | - |
| 1777998796 | 26.11° C | 54% | 1009.9 hPa | 0 mm | 0.45 m/s, 184° | 112 W/m² | - |
| 1777998494 | 25.56° C | 54% | 1009.9 hPa | 0 mm | 0.89 m/s, 199° | 102 W/m² | - |
* Rain latest hour (hover to see other rain measurements)
** Current wind speed in m/s (hover to see current wind gust speed)